Last updated on Jan. 26, 2021, 12:02 a.m. UTC
1 47307U 21001B 21024.40049354 -.00000165 00000-0 28683-3 0 9996 2 47307 17.4838 329.4295 8056128 186.6902 144.3193 1.37546228 227
Satellite is not in orbit.